Regional Weather Roundup
Issued by NWS

Home | Current Version | Previous Version | Graphics & Text | Print | Product List | Glossary Off
Versions: 1 2 3 4 5 6 7 8 9 10 11 12 13 14 15 16 17 18 19 20 21 22 23 24 25 26 27 28 29 30 31 32 33 34 35 36 37 38 39 40 41 42 43 44 45 46 47 48 49 50

000
ASUS43 KMKX 271411
RWRWI

WISCONSIN REGIONAL WEATHER ROUNDUP
NATIONAL WEATHER SERVICE MILWAUKEE/SULLIVAN WI
900 AM CDT THU JUL 27 2017

NOTE: "FAIR" INDICATES FEW OR NO CLOUDS BELOW 12,000 FEET WITH NO
SIGNIFICANT WEATHER AND/OR OBSTRUCTIONS TO VISIBILITY.

WIZ001-002-006>008-014>016-023>028-271500-
NORTHWEST WISCONSIN

CITY           SKY/WX    TMP DP  RH WIND       PRES   REMARKS
SUPERIOR ARPT  NOT AVBL
ASHLAND        SUNNY     72  62  71 NE3       30.09R
HAYWARD        SUNNY     70  61  73 N5        30.09R
SIREN          SUNNY     69  60  71 CALM      30.09S
CUMBERLAND     SUNNY     70  59  68 NE3       30.09S
RICE LAKE      SUNNY     69  61  75 CALM      30.10R
CHETEK         SUNNY     70  63  78 MISG      30.09R
LADYSMITH      SUNNY     71  62  71 NE3       30.09S
EAU CLAIRE     SUNNY     72  62  71 NE5       30.05S
MENOMONIE      SUNNY     71  63  75 N3        30.07S
NEW RICHMOND   SUNNY     72  61  69 NE6       30.09R
OSCEOLA        SUNNY     70  62  76 CALM      30.11S
$$

WIZ003>005-009-010-017-018-271500-
NORTH CENTRAL WISCONSIN

CITY           SKY/WX    TMP DP  RH WIND       PRES   REMARKS
MANITOWISH WTR SUNNY     70  61  72 N5        30.10R
ARBOR VITAE    SUNNY     72  61  68 NE5       30.08S
WOODRUFF       SUNNY     72  61  68 NE5       30.08S
RHINELANDER    SUNNY     71  60  68 E5        30.09R
EAGLE RIVER    SUNNY     70  58  65 NE5       30.09R
LAND O LAKES   SUNNY     70  57  63 N6        30.11R
PHILLIPS       SUNNY     69  61  76 NE6       30.09R
TOMAHAWK         N/A     69  59  71 CALM      30.09R
MEDFORD        SUNNY     67  61  79 NE8       30.08R
MERRILL        SUNNY     68  63  83 CALM      30.08R
$$

WIZ029-030-035-036-043>047-271500-
CENTRAL WISCONSIN

CITY           SKY/WX    TMP DP  RH WIND       PRES   REMARKS
WAUSAU         SUNNY     71  60  68 N3        30.05R
MOSINEE        SUNNY     70  63  78 N6        30.07R
MARSHFIELD     SUNNY     73  60  63 NE7       30.05R
STEVENS POINT  SUNNY     70  60  70 NE3       30.05S
WAUPACA        SUNNY     75  63  67 NE5       30.03S
WAUTOMA        SUNNY     73  62  68 NE8       30.03S
WISC RAPIDS    SUNNY     73  62  68 SE5       30.06R
CAMP DOUGLAS   SUNNY     73  64  73 N3        30.04R
$$

WIZ011>013-019>022-031-037>040-048>050-271500-
NORTHEAST WISCONSIN

CITY           SKY/WX    TMP DP  RH WIND       PRES   REMARKS
ANTIGO         SUNNY     69  61  76 NE5       30.08R
SHAWANO        SUNNY     73  61  66 NE6       30.04S
OCONTO         SUNNY     71  60  67 E6        30.03R
STURGEON BAY     N/A     72  63  73 NE6       30.03R
GREEN BAY      SUNNY     74  65  73 NE12      30.02S
MANITOWOC      SUNNY     73  59  61 NE8       30.01S
APPLETON       SUNNY     70  63  78 N8        30.01S
CLINTONVILLE   SUNNY    N/A N/A N/A NE6       30.03S
OSHKOSH        SUNNY     73  61  65 NE9       30.01S
$$

WIZ032>034-041-042-053>061-271500-
SOUTHWEST WISCONSIN

CITY           SKY/WX    TMP DP  RH WIND       PRES   REMARKS
LA CROSSE      SUNNY     74  67  78 NW3       30.03S
SPARTA         SUNNY     68  61  77 NE3       30.05S
VIROQUA        SUNNY     72  64  75 NE6       30.05S
BOSCOBEL       SUNNY     76  66  71 VRB5      30.01S
PRAIRIE DU CHI SUNNY     75  61  62 NE6       30.01R
PLATTEVILLE    MOSUNNY   73  72  96 N10       30.01R
$$

WIZ056-057-062-063-064-067-068-271500-
SOUTH CENTRAL WISCONSIN

CITY           SKY/WX    TMP DP  RH WIND       PRES   REMARKS
REEDSBURG      SUNNY     72  64  75 NE9       30.03R
BARABOO/DELLS  SUNNY     72  62  72 NE6       30.03R
LONE ROCK      SUNNY     75  65  70 NE6       30.00S
MINERAL POINT  SUNNY     73  70  88 NE6       30.01S
MADISON        SUNNY     74  66  76 NE9       29.99S
MIDDLETON      SUNNY     74  70  87 NE3       30.01S
WATERTOWN      SUNNY     73  65  76 NE9       29.99S
MONROE         CLOUDY    72  68  88 N10       29.99R
JANESVILLE     CLOUDY    73  73 100 N12       29.97R
$$

WIZ051-052-058>065-066-070>072-271500-
SOUTHEAST WISCONSIN

CITY           SKY/WX    TMP DP  RH WIND       PRES   REMARKS
MILWAUKEE      MOSUNNY   74  68  81 NE13G22   29.97R
WAUKESHA       SUNNY     72  63  73 NE12G17   30.00R
MILWAUKEE/TIMM SUNNY     73  61  64 NE12G18   29.99S
RACINE         CLOUDY    71  70  96 N15       29.98R FOG
KENOSHA        CLOUDY    74  69  85 N9G17     29.96S
FOND DU LAC    SUNNY     74  58  57 NE8       30.01S
SHEBOYGAN      SUNNY     73  63  70 NE12      30.00S
WEST BEND      SUNNY     72  61  68 NE9       30.00S
JUNEAU         SUNNY     72  60  67 NE7       30.01S
$$

LSZ147-162-271500-
LAKE SUPERIOR

STATION/POSITION TIME  TEMP    WIND        PRES    WAVE
                       AIR SEA DIR/SP/G            HT/PER
                 (UTC) (F)     (DEG/KT/KT) (MB)    (FT/S)
W MID LAKE BUOY  1350   57 52   50/  8/ 10 1018.4R   0
DEVILS ISLAND    1400   65     360/  4/  4 1018.7R
PORT WING        1309   66     260/  1/  5 1018.6
SAXON HARBOR     1330   71      CALM  /  2 1018.3R
$$

LMZ867-665-643>646-271500-
LAKE MICHIGAN

STATION/POSITION TIME  TEMP    WIND        PRES    WAVE
                       AIR SEA DIR/SP/G            HT/PER
                 (UTC) (F)     (DEG/KT/KT) (MB)    (FT/S)
CHAMBERS ISLAND  1340   69      10/ 12/ 13 1016.3R
S GREEN BAY BUOY 1400   69 71   30/ 12/ 14 1016.5
N MID LAKE BUOY  1350   65 65   30/ 10/ 12 1016.8R   1/ 4
NORTHPORT PIER   1340   68      10/  6/  9 1016.6R
KEWAUNEE LAKESHO 1348   71      20/  3/  7 1015.7R
SHEBOYGAN LAKESH 1400   69      10/ 12/ 13 1015.4R
PORT WASHINGTON  1330   74      30/ 11/ 16 1015.9S
ATWATER BUOY     1309   69 69   10/ 10/ 14 1015.2R
MILWAUKEE LAKESH 1350   71     360/ 13/ 15   N/A
S MID LAKE BUOY  1350   71 71   10/  8/ 10 1013.7R   0
KENOSHA   LAKESH 1400   70      20/ 18/ 21 1014.2
$$

TC  - TEMPERATURE IN CELSIUS
VSB - VISIBILITY IN STATUTE MILES
WCI - WIND CHILL INDEX
HX  - HEAT INDEX





USA.gov is the U.S. government's official web portal to all federal, state and local government web resources and services.